Regional Weather Roundup
Issued by NWS Burlington, VT

Current Version | Previous Version | Text Only | Print | Product List | Glossary On
Versions: 1 2 3 4 5 6 7 8 9 10 11 12 13 14 15 16 17 18 19 20 21 22 23 24 25 26 27 28 29 30 31 32 33 34 35 36 37 38 39 40 41 42 43 44 45 46 47 48 49 50
000
ASUS41 KBTV 080330
RWRBTV
VERMONT REGIONAL WEATHER ROUNDUP
NATIONAL WEATHER SERVICE BURLINGTON VT
1000 PM EST WED DEC 07 2016

NOTE: "FAIR" INDICATES FEW OR NO CLOUDS BELOW 12,000 FEET WITH NO
SIGNIFICANT WEATHER AND/OR OBSTRUCTIONS TO VISIBILITY.

* THESE REPORTS ARE NOT UNDER NWS QUALITY CONTROL AND/OR DO NOT
  REPORT WEATHER SUCH AS PRECIPITATION AND FOG.

VTZ001>019-080400-
_____VERMONT_____


CITY           SKY/WX    TMP DP  RH WIND       PRES   REMARKS
BURLINGTON     CLOUDY    35  30  82 S6        29.95S WCI  30
MONTPELIER     MOCLDY    33  26  75 S3        29.95S
MORRISVILLE    CLOUDY    32  28  85 SW6       29.94R WCI  26
ST. JOHNSBURY*   N/A     32  32 100 MISG      29.92R
LYNDONVILLE*   FOG       31  31  99 CALM      29.93R VSB 1/4
MIDDLEBURY*    CLOUDY    34  29  80 SE3       29.96S
RUTLAND*       CLOUDY    34  27  75 CALM      29.96S
SPRINGFIELD    FOG       31  30  96 CALM      29.97F VSB 1/2
HIGHGATE*      CLOUDY    36  28  72 W6        29.94S WCI  32
NEWPORT*       CLOUDY    33  28  83 SW8       29.92R WCI  25
BENNINGTON     CLOUDY    31  28  89 S3        29.96F
SUTTON*          N/A     28 N/A N/A MISG        N/A
ISLAND POND*     N/A     27 N/A N/A N2          N/A
GALLUP MILLS*    N/A     30 N/A N/A MISG        N/A
UNION VILLAGE*   N/A     32 N/A N/A MISG        N/A
MT. MANSFIELD*   N/A     23 N/A N/A NW31        N/A  WCI   5

_____LAKE CHAMPLAIN_____


CITY           SKY/WX    TMP DP  RH WIND       PRES   REMARKS
BURTON ISLAND*   N/A     41  32  70 W14         N/A
COLCHESTER RF*   N/A     41  30  65 SW13        N/A
DIAMOND ISL*     N/A     36  32  87 E7          N/A  WCI  30

$$

NYZ007-026>031-035-052-083-087-080400-
_____NORTHERN NEW YORK_____


CITY           SKY/WX    TMP DP  RH WIND       PRES   REMARKS
PLATTSBURGH    CLOUDY    39  26  59 SW3       29.95S
SARANAC LAKE   CLOUDY    31  25  78 W7        29.88F WCI  24
MASSENA        PTCLDY    32  23  69 SW8       29.94F WCI  25
OGDENSBURG*    MOCLDY    36  27  69 W5        29.92F WCI  32
POTSDAM*       MOCLDY    34  27  75 SW6       29.93S WCI  29
STARK FALLS*     N/A     32 N/A N/A SW3         N/A
WATERTOWN      CLOUDY    39  34  82 SW12      29.94F WCI  32
FT DRUM        CLOUDY    32  32 100 CALM      29.92F
ALBANY         CLOUDY    34  33  96 CALM      30.00R
GLENS FALLS    PTCLDY    33  29  85 CALM      29.98F

$$
NHZ002-005-011-080400-
_____NEW HAMPSHIRE_____


CITY           SKY/WX    TMP DP  RH WIND       PRES   REMARKS
LEBANON        CLOUDY    30  30 100 S3        29.95S FOG
KEENE          FOG       28  28 100 CALM      29.98S VSB 1/4
MT WASHINGTON  FOG       14  14 100 W39         N/A  VSB 1/16WCI  -9
PLYMOUTH       FOG       31  31 100 CALM      29.96F VSB 1/2
WHITEFIELD     CLOUDY    26  23  88 CALM      29.93R

$$

_____REGIONAL QUEBEC LOCATIONS_____


CITY           SKY/WX    TMP DP  RH WIND       PRES   REMARKS
MONTREAL       CLOUDY    36  25  64 SW13      29.91S WCI  27
QUEBEC CITY    CLOUDY    28  28 100 S2        29.85F FOG
SHERBROOKE     CLOUDY    34  28  80 SW8       29.88S WCI  27

_____REGIONAL ONTARIO LOCATIONS_____


CITY           SKY/WX    TMP DP  RH WIND       PRES   REMARKS
OTTAWA         CLOUDY    32  25  74 SW12      29.89S WCI  23

______KEY______
VSB  - VISIBILITY IN MILES
WCI  - WIND CHILL INDEX
HX   - HEAT INDEX
$$
NNNN




USA.gov is the U.S. government's official web portal to all federal, state and local government web resources and services.